10:08
Airports
History
Links
Donate
Help keep this website running!
PayPal
Bitcoin
Information on this page is community maintained and may be outdated or inaccurate and is intended for reference only or PC simulator navigating.
Always use approved charts for navigating.
CCA7
Apple River
Apple River (CCA7)
Advocate Harbour, Nova Scotia, Canada
4
Lat/Lng:45° 27' 43" N / 64° 49' 17" W
45.461944 / -64.821389
Elevation:135'ft 41mMSL
ID / ICAO:CCA7
Runways:1
Longest:(09-27) 756.4m 2,482ft Grass
Distance To
Airport ID:
Airport Radio Frequencies
ATF: 123.2
Nearby VORs <50NM
Nearby NDBs
Nearby WeatherUpdated 06-23-17 10:00 GMT
Nearby weather at CYZX, Greenwood located 33.3 nautical miles from CCA7
Altimeter: 29.86
Visibility: 15.0 statute miles
Wind: 3 knots (260°)
Temp: 13°c 55°f
Humidity: 76.7%

METAR: CYZX 231000Z 26003KT 15SM FEW250 13/09 A2986 RMK CI2 WNDY HILL UNAVBL SLP114

(Powered by phpweather)
Runway 09 / 27
Dimensions:756.4 x 14.9m 2482' x 49'ft
Surface:Grass
Runway 09 [A]Runway 27 [B]
Heading:071°TH 251°TH
Lat:
Lng:
45° 27' 39.16"N
64° 49' 33.73"W
45° 27' 46.83"N
64° 49' 0.27"W
User Notes and Comments
Google Map
Nearby Airports
(C) Waterville Kings Co Muni 29.5 NM
CCW3 SSE 163°
(C) Greenwood 33.3 NM
CYZX (WX) S 188°
(C) GREATER MONCTON INTL 45.4 NM
CYQM (WX) N
(U) Moncton McEwen 47.9 NM
CCG4 N
4 STANLEY 50.4 NM
CCW4 ESE 119°
(C) Saint John 52.8 NM
CYSJ (WX) W 259°
(U) DEBERT 66.0 NM
CCQ3 E 92°
VFR Chart
Flight Planning at SkyVector.com